Temp
25 26 26 26 25 25 24 24 24 23 22 22 22 22 22 21 21 21 20 20 20 20 20 20 20 20 20 21 21 21 21 21 21 21 21 21 20 20 20 20 18 18 18
25 25 26 26 25 25 23 24 24 23 22 22 22 22 22 21 21 20 20 20 20 21 20 20 20 20 20 21 21 21 21 21 20 20 20 21 21 20 20 19 19 18 18
25 25 25 26 25 24 23 23 23 23 22 22 22 21 21 21 21 20 20 20 20 21 21 20 20 20 20 20 20 21 21 21 20 20 20 20 21 20 19 19 19 18 18
24 25 25 26 25 24 24 23 23 23 22 22 22 21 21 21 21 21 20 20 20 20 21 21 20 20 20 20 20 20 21 22 21 21 22 21 21 20 19 18 19 18 18
24 23 24 25 25 24 24 23 23 23 22 22 22 21 21 21 21 21 21 20 20 20 20 20 20 20 20 20 20 21 21 22 22 22 22 21 21 20 20 19 19 19 19
25 24 24 24 25 24 23 23 23 23 22 22 22 21 21 21 21 21 20 20 20 20 20 20 20 20 20 20 20 20 21 22 22 22 22 22 21 21 20 20 20 19 19
26 25 24 24 24 23 23 23 23 23 22 22 22 21 21 21 21 21 21 20 20 20 20 20 20 20 20 20 20 20 21 22 22 22 22 22 22 21 20 20 19 19 19
26 25 24 23 23 23 23 23 23 22 22 22 21 21 22 21 21 21 20 20 20 20 20 20 20 20 20 20 20 20 21 22 22 23 22 21 21 21 20 19 19 19 18
25 24 24 22 22 23 23 23 22 22 22 22 21 22 21 21 21 20 20 20 20 20 20 19 20 20 20 20 20 21 21 22 22 23 22 21 21 21 20 19 19 19 18
24 23 23 21 22 22 22 22 22 22 22 22 22 22 21 21 21 20 19 19 20 20 20 19 19 20 20 20 20 20 21 22 23 23 22 21 21 21 20 19 18 18 18
25 23 21 20 21 21 21 21 21 22 21 21 21 21 21 20 20 20 19 20 20 20 19 19 19 20 20 20 21 21 22 22 22 22 22 21 21 21 20 19 18 18 18
25 23 22 21 21 20 20 21 20 20 21 21 20 20 20 20 20 20 19 19 20 19 19 19 19 20 20 20 21 22 22 22 23 22 22 21 21 20 20 19 18 18 18
25 24 23 23 21 21 22 21 20 20 20 20 19 20 20 21 21 20 20 19 19 19 19 19 20 20 21 21 20 22 22 22 23 23 22 21 21 20 19 19 18 18 18
26 25 24 23 22 22 22 21 20 20 20 20 20 20 21 22 21 21 21 20 19 19 19 20 20 21 21 21 21 21 21 22 23 23 23 22 22 20 19 19 18 18 18
27 26 25 24 22 22 23 22 21 21 21 21 20 20 21 21 22 22 22 21 20 20 21 21 21 21 22 21 21 21 21 21 21 23 21 22 21 21 20 19 18 18 18
28 26 26 24 23 22 23 22 22 22 22 22 22 21 21 22 23 22 22 22 22 22 23 22 22 22 23 22 22 21 22 22 22 22 22 22 21 21 21 20 20 19 18
29 27 26 25 23 23 23 24 23 23 23 23 23 22 22 22 23 22 22 23 23 23 24 23 23 22 22 22 22 22 21 21 22 22 21 21 22 22 21 21 20 20 19
29 27 26 25 24 23 23 24 24 24 24 23 23 22 21 22 22 22 22 23 23 23 23 23 23 23 22 22 22 21 21 21 21 21 22 22 22 21 21 20 20 19 19
30 27 25 25 25 23 23 23 23 23 23 22 22 21 21 21 22 22 22 22 22 23 22 22 23 22 22 21 21 21 21 21 21 21 21 21 21 21 21 20 19 19 19
30 27 26 25 25 23 23 23 23 23 23 21 21 20 20 20 21 21 22 22 22 22 22 22 22 22 22 22 22 22 22 22 22 22 21 21 21 21 20 19 19 19 18
31 28 26 25 24 23 22 22 23 23 21 22 20 20 20 20 20 21 21 22 22 22 22 22 22 21 22 21 21 22 22 22 22 22 21 21 20 20 20 19 20 19 19
31 28 26 25 24 23 22 22 23 22 22 21 22 21 21 20 20 21 21 21 22 21 22 22 21 21 21 20 20 20 18 21 22 21 21 21 20 20 20 20 19 18 18
31 29 26 25 23 23 22 22 22 23 23 22 22 22 22 21 21 21 20 21 21 21 21 21 21 21 21 19 19 19 18 18 20 21 21 21 20 19 19 19 18 18 17
31 30 28 26 24 23 22 22 22 23 23 23 23 23 22 21 20 20 20 21 21 21 21 20 21 20 20 18 18 18 18 18 18 17 21 21 20 19 18 18 17 17 16
31 30 29 27 26 24 23 23 23 24 24 24 23 23 22 21 20 20 20 20 21 20 20 19 19 19 19 17 17 17 17 18 18 17 15 18 19 18 17 17 16 16 15
30 29 29 28 27 25 23 24 24 24 24 24 23 22 21 20 20 20 20 20 20 19 18 18 18 18 18 18 18 18 18 17 17 17 15 16 16 17 16 16 15 15 14
Height
750 753 760 764 770 775 779 783 788 792 796 800 802 804 807 810 812 814 816 817 819 821 821 824 825 825 827 827 828 829 830 830 830 831 832 832 832 832 832 832 831 831 831
745 752 758 763 768 774 779 784 788 792 797 801 804 806 808 811 814 817 819 820 821 822 823 825 826 827 829 828 830 831 832 832 833 834 834 834 834 834 834 834 833 833 833
745 752 758 763 768 773 779 783 788 793 798 802 805 808 810 813 815 818 821 823 823 823 826 826 828 830 830 831 832 833 833 834 835 836 837 838 836 837 837 836 836 836 835
747 753 758 763 768 773 779 784 788 794 798 802 806 810 812 814 817 819 822 824 825 826 827 828 830 831 832 833 833 834 835 835 836 837 837 841 839 840 839 838 838 838 837
751 756 758 763 768 773 779 784 790 793 798 803 807 810 814 816 818 820 822 824 826 828 829 829 831 832 833 834 835 836 836 836 837 837 839 839 840 841 840 840 840 839 838
752 758 761 765 769 774 779 785 790 795 798 803 808 811 814 817 820 822 823 825 827 829 830 831 833 833 834 835 836 837 837 837 836 839 838 838 840 841 841 841 841 841 841
753 757 763 767 771 775 780 786 792 795 799 803 807 812 814 818 820 822 824 826 828 830 831 833 833 834 835 836 837 838 839 838 837 837 838 839 840 842 842 843 843 843 843
752 758 764 768 773 777 782 786 792 797 800 803 808 812 814 818 821 824 825 827 829 830 832 834 835 835 836 836 838 839 839 838 838 837 838 839 841 842 843 844 844 845 844
753 758 765 770 774 779 783 787 792 797 801 804 808 812 815 818 821 824 826 827 829 831 833 835 835 836 837 837 838 839 839 839 839 838 840 840 841 842 844 845 845 846 846
755 760 765 770 774 778 784 788 792 797 801 805 808 811 816 818 821 824 826 828 830 832 834 835 836 837 837 838 838 839 839 839 839 839 839 840 841 842 844 845 846 847 847
755 761 766 770 774 778 782 787 792 797 801 805 808 812 815 818 821 824 827 828 830 832 834 835 837 837 838 838 838 839 839 839 839 841 840 841 842 842 844 845 846 847 847
753 759 766 770 773 777 782 786 792 796 800 804 807 810 814 818 820 823 826 828 830 832 833 835 836 837 837 837 837 838 838 839 838 839 839 841 842 842 844 845 846 847 848
751 757 762 768 773 777 781 784 790 794 798 802 806 809 813 817 820 823 824 827 829 831 832 834 835 835 836 836 838 838 839 839 838 839 839 840 842 843 844 845 846 847 848
748 754 759 766 771 775 779 782 788 793 797 801 804 807 811 814 817 820 822 824 827 829 831 832 833 833 834 837 837 838 839 839 839 838 838 840 841 842 843 844 845 846 846
742 750 755 760 766 772 776 779 786 789 794 798 802 805 809 811 814 817 820 821 825 827 828 830 831 832 834 835 836 838 839 839 838 838 839 839 840 842 842 843 844 845 845
736 743 750 755 761 768 772 774 780 786 789 795 799 801 806 809 811 814 818 819 822 824 825 827 829 830 832 833 834 835 837 838 838 838 838 839 839 840 841 841 842 842 844
728 737 745 752 757 762 769 772 775 781 785 789 794 797 801 806 810 812 816 818 820 822 824 826 828 828 830 832 834 834 835 836 836 837 838 838 838 838 839 840 840 841 842
722 730 740 748 753 759 764 771 774 777 781 783 788 791 797 802 806 810 813 815 818 820 821 824 827 828 829 830 831 833 833 834 835 836 836 837 837 837 838 839 840 841 841
713 724 733 742 748 754 761 766 771 776 777 780 785 788 793 797 802 806 810 813 816 818 820 823 824 826 827 828 829 829 830 832 833 833 834 835 836 836 837 837 839 840 840
707 715 724 734 742 748 755 762 766 770 773 776 781 784 788 793 798 803 806 809 812 815 817 820 821 823 825 826 826 826 828 828 829 830 830 832 833 834 836 837 838 839 839
699 709 716 726 734 741 747 752 757 760 767 773 776 780 783 787 793 797 801 805 808 812 814 816 818 820 822 823 824 824 825 826 826 827 828 830 830 832 834 835 837 838 837
689 697 708 715 725 733 740 744 750 755 761 768 773 776 779 781 787 791 796 800 804 809 811 813 815 817 819 821 822 824 826 825 824 826 828 829 830 832 834 835 836 836 837
682 690 698 706 715 724 732 742 748 753 759 763 766 769 772 775 780 786 791 796 800 804 807 809 812 815 818 820 821 822 825 827 824 823 825 826 828 830 833 835 834 835 837
673 680 689 699 707 716 725 733 738 738 741 745 754 761 767 771 776 781 786 791 796 800 802 805 809 812 815 816 820 820 822 824 826 828 824 826 827 829 832 833 834 835 836
668 675 681 690 699 707 715 720 727 733 737 741 748 754 761 767 772 776 781 786 791 794 798 800 803 806 809 813 816 818 820 821 823 825 826 824 826 828 830 830 832 833 834
659 667 674 683 691 698 705 712 717 723 727 734 740 746 753 760 766 771 776 781 783 786 792 796 799 803 805 808 810 814 815 818 819 822 824 824 826 827 828 830 832 834 832
Wind_Speed
28 34 30 27 26 25 24 24 21 19 19 19 19 20 19 19 18 18 17 17 16 14 14 13 13 13 15 16 16 17 18 18 18 19 19 19 19 18 16 15 16 18 18
35 35 32 29 28 27 25 25 22 21 20 19 19 19 19 18 17 15 14 14 14 13 13 12 13 14 14 16 16 16 17 15 14 15 21 20 19 19 19 19 19 18 18
35 35 31 29 28 28 27 26 24 22 21 20 19 18 18 17 15 14 12 11 12 12 12 12 12 13 14 15 15 14 14 11 9 8 6 12 19 17 18 19 18 19 17
33 34 30 29 28 28 28 26 25 23 22 21 20 18 17 16 15 13 12 11 10 10 11 12 11 12 13 13 13 12 11 10 9 12 10 12 15 15 15 17 17 16 16
28 27 29 29 28 28 29 28 26 24 23 21 20 19 16 16 14 13 12 11 10 9 10 11 10 11 11 10 9 8 9 7 8 12 11 11 10 13 14 14 15 16 17
27 24 28 27 26 26 30 29 26 24 23 22 21 19 17 14 13 12 11 11 10 9 9 10 10 9 8 8 5 4 4 2 5 8 7 5 7 10 12 14 15 16 16
28 24 28 26 25 26 30 28 25 24 24 23 22 19 16 14 13 12 10 10 9 8 8 8 9 8 7 5 3 1 1 1 5 10 8 7 7 8 11 12 13 14 13
28 24 28 25 25 25 29 27 25 24 24 24 21 19 16 14 13 11 11 10 9 7 7 7 7 6 5 4 2 1 1 1 3 5 7 6 8 7 9 10 10 11 12
26 25 30 26 25 25 27 27 25 25 24 23 21 18 16 14 13 12 11 10 9 7 7 7 6 5 4 4 2 1 1 0 2 2 4 8 8 6 6 7 8 9 9
23 22 31 27 27 26 26 25 26 26 25 23 21 19 16 14 13 13 12 10 9 8 8 7 6 5 4 3 1 1 1 2 2 6 9 10 7 5 5 5 5 6 7
23 23 26 24 27 26 26 26 27 26 25 23 21 19 17 15 15 13 11 10 10 10 9 8 6 5 4 3 1 1 3 3 6 1 7 6 4 3 3 3 2 3 4
25 27 26 25 26 26 21 27 27 27 25 24 23 21 18 14 14 11 12 12 10 11 10 9 7 6 6 6 3 1 2 3 4 2 3 3 2 3 3 2 1 2 4
26 27 29 27 27 28 25 28 26 26 24 23 21 22 19 18 12 16 17 14 13 13 12 10 9 9 7 6 15 1 3 3 1 6 4 1 3 4 4 4 3 3 4
28 29 30 29 30 28 25 28 25 23 23 23 23 21 22 20 20 19 15 15 14 14 11 12 11 7 6 7 6 4 6 8 4 4 7 4 2 5 5 4 4 5 5
28 30 31 34 33 31 27 28 26 25 26 24 25 25 23 21 23 20 19 16 14 20 14 20 18 12 9 9 7 6 5 5 5 4 4 1 4 4 6 6 6 6 7
29 33 32 35 36 34 29 31 32 29 30 27 27 29 23 23 20 21 19 19 20 21 13 16 17 14 8 12 11 8 6 5 5 4 3 5 3 2 4 5 7 8 9
31 32 33 33 35 36 32 27 33 30 30 31 27 29 30 25 18 21 20 18 17 16 14 13 11 12 13 11 5 9 8 8 7 7 6 7 8 7 7 5 5 6 7
32 35 34 31 33 34 34 24 26 24 24 29 28 22 29 28 19 22 19 18 18 15 15 10 12 13 9 9 10 9 11 10 12 7 10 9 9 8 9 9 5 5 7
36 37 37 36 33 35 32 29 26 27 25 28 29 27 27 30 27 19 21 17 20 14 14 17 14 14 13 12 13 16 16 11 10 10 8 10 11 10 7 6 4 6 11
33 40 40 37 34 36 32 30 26 25 31 21 29 24 26 36 30 22 23 19 21 18 17 17 17 14 15 13 14 6 12 9 9 11 11 9 9 8 5 5 6 8 12
31 38 41 38 38 37 35 34 30 30 26 29 27 30 28 28 32 28 24 22 21 22 19 18 16 16 17 9 5 10 9 14 17 16 6 7 4 2 1 3 7 7 12
32 39 40 41 41 38 36 36 31 31 28 28 26 28 30 33 33 31 29 21 23 22 20 20 20 15 10 10 5 3 2 5 19 12 7 6 7 5 3 3 4 6 9
29 36 41 42 42 42 38 31 30 27 25 27 30 31 33 34 33 32 31 27 24 25 22 20 20 15 13 6 10 3 1 2 2 14 14 11 8 4 2 7 6 8 10
31 35 40 41 42 42 39 34 38 33 31 32 32 30 32 32 32 31 31 33 22 27 22 16 16 16 13 11 6 8 4 1 1 3 9 7 3 6 5 6 8 5 8
33 32 34 40 41 42 43 40 38 32 32 30 30 31 31 31 32 31 31 31 24 23 20 20 20 17 15 16 10 7 5 5 4 1 2 3 3 7 8 4 6 9 7
35 38 38 35 39 42 45 43 39 38 32 30 33 33 32 33 33 33 32 30 29 28 25 22 18 16 15 13 14 13 11 5 9 6 2 0 3 6 5 6 8 6 6
Wind_Direction
143 157 157 156 157 157 155 155 152 149 146 142 136 129 124 119 112 109 113 115 114 113 108 107 105 104 102 97 95 92 87 86 83 79 75 68 67 66 61 60 58 59 44
150 156 159 158 160 162 162 160 158 155 153 149 144 137 132 126 117 116 116 116 118 111 108 107 107 108 103 101 98 94 89 87 87 87 77 60 61 61 59 58 58 61 51
150 159 160 161 164 165 167 164 163 159 157 154 150 144 138 132 130 128 125 121 114 110 111 109 110 108 107 105 100 95 93 85 72 69 93 60 60 60 61 57 57 58 57
148 156 161 164 167 169 170 169 165 163 161 159 155 150 145 140 140 138 135 125 117 118 119 116 118 115 114 113 105 91 93 86 65 52 61 101 59 60 62 57 58 63 56
147 148 164 165 167 169 173 171 170 166 164 163 160 156 152 148 147 144 140 133 129 124 124 123 123 123 123 119 115 94 87 100 79 81 98 82 65 62 64 62 60 60 61
148 156 166 165 167 169 173 172 172 168 166 166 165 161 157 156 154 152 148 143 140 141 130 135 136 131 128 128 126 111 100 76 9 49 125 104 70 66 67 63 57 56 56
152 163 167 166 166 168 170 172 173 172 170 169 168 166 162 163 162 161 158 153 150 147 142 148 141 141 140 136 140 135 101 38 6 32 129 112 100 77 71 66 62 59 56
151 158 168 166 168 168 172 173 176 175 174 171 170 169 167 168 169 169 166 159 159 152 154 158 153 150 146 148 165 205 241 214 10 54 116 129 105 95 78 71 65 61 60
153 160 169 167 170 173 175 177 179 178 177 173 173 173 171 171 174 176 175 170 168 163 167 166 163 162 159 162 165 243 333 278 137 9 163 144 118 99 86 77 70 59 53
144 164 171 171 171 173 179 182 181 180 179 176 176 174 175 174 178 181 180 177 173 174 178 178 180 178 177 176 174 253 210 153 159 311 154 140 121 102 87 79 64 51 46
148 161 166 169 171 173 176 179 179 180 179 178 177 176 176 177 178 185 177 190 182 183 186 188 193 195 202 192 169 253 206 244 280 294 137 119 122 142 117 106 88 49 27
161 167 172 171 170 172 164 173 176 179 179 179 180 179 177 179 178 185 193 197 196 191 191 195 199 202 214 204 189 90 252 333 183 57 156 126 172 193 189 147 77 12 7
170 173 174 177 174 171 170 176 176 182 183 178 183 187 175 183 180 183 191 197 203 199 197 202 207 215 216 244 237 236 243 270 231 202 171 331 274 224 220 239 276 307 335
175 181 176 178 176 178 173 182 174 180 182 182 187 195 180 190 185 185 200 205 204 207 196 219 215 213 229 241 263 262 269 253 290 250 228 247 297 243 238 248 262 267 298
179 182 183 179 178 183 179 179 180 184 186 188 191 197 191 200 189 190 200 189 199 208 201 221 220 209 204 223 222 226 244 257 290 221 201 192 321 251 247 254 262 274 288
179 181 187 182 179 184 193 181 182 189 188 193 196 198 196 205 200 192 207 193 206 207 210 215 213 200 232 222 208 205 221 240 235 241 278 240 240 284 269 265 268 269 273
179 177 185 184 180 184 196 188 183 193 191 192 198 199 201 201 210 190 206 205 216 217 211 203 225 207 212 227 212 214 214 229 227 228 249 274 268 268 255 259 282 280 286
172 176 181 185 188 186 192 201 187 192 201 187 190 187 192 198 200 195 205 209 213 222 214 215 221 235 225 232 235 228 236 229 239 239 232 243 267 281 254 245 254 276 308
174 173 178 187 190 187 190 198 193 198 194 197 197 212 195 194 200 202 204 211 210 221 202 215 223 230 226 238 231 228 221 224 224 237 258 263 251 255 284 296 277 304 322
177 173 176 183 190 187 188 196 198 201 195 193 202 201 214 209 199 208 203 212 207 214 215 221 221 227 227 231 241 209 214 219 242 247 242 257 279 274 268 289 338 339 331
179 172 174 178 187 184 188 191 195 195 189 200 193 197 204 203 198 206 203 211 206 209 221 219 216 216 225 237 256 273 268 254 241 239 204 212 193 167 231 294 302 309 327
179 174 174 180 182 188 191 194 195 192 194 195 201 201 202 201 196 201 201 208 203 208 220 220 214 216 216 239 210 241 290 290 247 236 219 208 149 135 40 6 10 42 31
179 175 177 179 183 188 194 193 196 191 192 194 202 202 199 194 193 197 202 203 206 207 216 215 211 218 222 190 204 217 232 229 344 172 185 149 124 129 286 345 339 351 5
190 180 181 183 183 188 187 191 194 193 193 195 194 193 192 193 191 197 203 204 210 207 212 215 218 223 217 190 183 215 201 98 315 327 122 74 67 96 94 54 26 32 3
189 192 188 188 188 189 188 193 194 199 201 191 189 187 190 192 193 197 198 202 202 199 203 208 208 197 206 182 192 173 182 174 225 175 287 6 17 62 25 15 32 31 28
188 193 193 195 194 193 191 194 196 200 195 188 185 184 185 189 192 196 196 197 201 197 198 196 200 208 198 187 179 184 177 175 199 204 199 282 48 15 34 13 348 352 349